Weather Service Report


859 
ASUS45 KBOI 202110
RWRID 
WEATHER ROUNDUP FOR IDAHO
NATIONAL WEATHER SERVICE BOISE ID
300 PM MDT MON OCT 20 2014

NOTE: "FAIR" INDICATES FEW OR NO CLOUDS BELOW 12000 FEET
WITH NO SIGNIFICANT WEATHER AND/OR OBSTRUCTIONS TO VISIBILITY

IDZ012-014-202200-
SOUTHWEST IDAHO

  
CITY           SKY/WX    TMP DP  RH WIND       PRES   REMARKS
BOISE          SUNNY     75  36  24 NW7       29.78F                  
CALDWELL       SUNNY     72  41  33 CALM      29.81F                  
MOUNTAIN HOME  SUNNY     79  36  20 E6        29.78F                  
$$

IDZ016-017-202200-
SOUTHCENTRAL IDAHO

  
CITY           SKY/WX    TMP DP  RH WIND       PRES   REMARKS
BURLEY         SUNNY     78  37  22 SW15      29.88F                  
JEROME         SUNNY     79  33  19 SE10      29.87F                  
TWIN FALLS     SUNNY     80  33  18 VRB6      29.87F                  
$$

IDZ019>023-202200-
SOUTHEAST IDAHO

  
CITY           SKY/WX    TMP DP  RH WIND       PRES   REMARKS
IDAHO FALLS    PTSUNNY   71  37  28 W5        29.97F                  
POCATELLO      MOSUNNY   78  35  21 S17G26    29.94F                  
REXBURG        PTSUNNY   69  36  29 W7        29.98F                  
$$

IDZ006-010-011-018-031-032-202200-
CENTRAL IDAHO MOUNTAINS

  
CITY           SKY/WX    TMP DP  RH WIND       PRES   REMARKS
MCCALL         SUNNY     68  31  25 S16G22    29.87F                  
HAILEY         MOSUNNY   70  37  30 SE12      29.97F                  
STANLEY          N/A     68  28  22 S14G25    29.95F                  
SALMON         SUNNY     66  32  28 NW6       29.83F                  
CHALLIS        CLOUDY    66  33  29 NW3       29.87F                  
$$

IDZ002-004-006-007-026-202200-
NORTHERN IDAHO

  
CITY           SKY/WX    TMP DP  RH WIND       PRES   REMARKS
LEWISTON       SUNNY     71  38  29 CALM      29.71F                  
LOWELL           N/A     67  48  50 N3        29.71F                  
COEUR D'ALENE  PTSUNNY   70  43  37 W3        29.74F                  
MULLAN PASS    SUNNY     58  31  35 VRB6      29.87F                  
$$

Return to Home page


Western Regional Climate Center, wrcc@dri.edu